Regional Weather Roundup
Issued by NWS

Current Version | Previous Version | Text Only | Print | Product List | Glossary On
Versions: 1 2 3 4 5 6 7 8 9 10 11 12 13 14 15 16 17 18 19 20 21 22 23 24 25 26 27 28 29 30 31 32 33 34 35 36 37 38 39 40 41 42 43 44 45 46 47 48 49 50
000
ASUS44 KLUB 040610
RWRLUB
WEST TEXAS WEATHER ROUNDUP
NATIONAL WEATHER SERVICE LUBBOCK TX
100 AM CDT TUE OCT 04 2022

NOTE: "FAIR" INDICATES FEW OR NO CLOUDS BELOW 12,000 FEET WITH NO
SIGNIFICANT WEATHER AND/OR OBSTRUCTIONS TO VISIBILITY.

TXZ004-006>008-010-012-014-016-OKZ002-040700-
TEXAS PANHANDLE/OKLAHOMA PANHANDLE

CITY           SKY/WX    TMP DP  RH WIND       PRES   REMARKS
AMARILLO       PTCLDY    60  33  36 S14       30.16S
BORGER         PTCLDY    66  30  26 SE14G24   30.15S
CANADIAN       CLEAR     60  32  34 SE5       30.14S
DALHART        PTCLDY    59  39  47 S9        30.17S
DUMAS          PTCLDY    57  33  39 SE8       30.16F
GUYMON         PTCLDY    60  32  34 W6        30.13R
HEREFORD       MOCLDY    63  39  41 S9        30.18S
PAMPA          PTCLDY    64  32  30 SE14      30.17F
PERRYTON       CLEAR     57  27  32 S10       30.13S
$$

TXZ026-029-035-045-048-040700-
SOUTHERN PANHANDLE/SOUTH PLAINS/ROLLING PLAINS

CITY           SKY/WX    TMP DP  RH WIND       PRES   REMARKS
CHILDRESS      CLEAR     60  31  33 SE9       30.14F
SEMINOLE       PTCLDY    63  40  43 SE5       30.21S
LUBBOCK        PTCLDY    58  37  45 SE7       30.16F
PLAINVIEW      CLEAR     56  34  42 SE6       30.17S
SNYDER         CLEAR     65  32  29 SE3       30.14S
$$

TXZ052-054-060>062-072-078-127-140-154-169-040700-
PERMIAN BASIN/CONCHO VALLEY/BIG COUNTRY/EDWARDS PLATEAU

CITY           SKY/WX    TMP DP  RH WIND       PRES   REMARKS
ABILENE        CLEAR     62  35  36 SE6       30.14S
BIG SPRING     PTCLDY    69  34  27 SE13      30.14S
BRADY          MOCLDY    66  37  34 SE6       30.12F
JUNCTION       CLEAR     59  42  53 CALM      30.14F
MIDLAND        PTCLDY    65  47  52 S8        30.14S
ODESSA         PTCLDY    68  50  52 S10       30.14S
SAN ANGELO     CLEAR     59  36  42 S5        30.12F
SONORA         CLEAR     57  45  62 CALM      30.17F
SWEETWATER     CLEAR     64  31  29 S7        30.16F
WINK           CLEAR     67  52  58 SE10      30.11F
$$

TXZ055-058-074-075-080-082-040700-
FAR WEST/SOUTHWEST MOUNTAINS/TRANS PECOS

CITY           SKY/WX    TMP DP  RH WIND       PRES   REMARKS
ALPINE         CLEAR     57  51  78 SW5       30.24S
DRYDEN           N/A     62  53  72 NE7       30.13
EL PASO        MOCLDY    70  48  45 S3        30.13R
FORT STOCKTON  CLEAR     64  53  67 SE12      30.12F
GUADALUPE PASS PTCLDY    60  44  55 NE23      30.22F
MARFA          CLEAR     51  40  65 NW7       30.22S
PECOS          CLEAR     68  54  60 E10       30.10F
PRESIDIO       FAIR      71  57  61 NE7       30.11S
$$

TXZ014-016-019-021>030-083-040700
TEXAS TECH WEST TEXAS MESONET/TEXAS PANHANDLE/NORTHERN SOUTH PLAINS

CITY           SKY/WX    TMP DP  RH WIND       PRES   REMARKS
ABERNATHY 5ENE   N/A     56  39  52 SE5       30.18S
AMARILLO 9NNE    N/A     63  34  34 S10       30.16F
AMARILLO 7SSE    N/A     59  34  38 S9        30.19S
AMHERST 1NE      N/A     57  40  53 S6        30.18S
BOOTLEG 11WNW    N/A     59  39  47 S10       30.23S
CANADIAN 6E      N/A     61  33  35 SE10      30.13S
CAPROCK CYN SP   N/A     65  33  31 SW9       30.16S
CHILDRESS 2NNE   N/A     61  33  35 SE10      30.14F
CLARENDON 2WSW   N/A     64  32  29 S12       30.16S
CLAUDE 12SW      N/A     62  32  32 SE7       30.18S
DIMMITT 2NE      N/A     59  39  47 S10       30.19S
FLOYDADA 2NNE    N/A     55  34  43 SE8       30.18S
FRIONA 2NE       N/A     56  40  55 S6        30.19S
GOODLETT 3W      N/A     63  38  40 SE8       30.13S
HART 3N          N/A     55  38  54 SE6       30.19S
HEREFORD 2NW     N/A     61  39  44 S8        30.19S
MCLEAN 1E        N/A     61  33  35 SE9       30.15F
MEMPHIS 1NE      N/A     60  31  33 CALM      30.15S
MULESHOE 2SSW    N/A     57  41  55 S6        30.19S
OLTON 6S         N/A     52  40  64 SE8       30.17F
PALO DURO SP     N/A     63  32  31 SE5       30.19F
PAMPA 2E         N/A     60  30  32 SE13      30.18F
PLAINVIEW 1S     N/A     61  34  36 SE8       30.18S
SILVERTON 7ESE   N/A     64  33  31 SE12      30.17F
TULIA 2ENE       N/A     56  34  43 S7        30.18F
TURKEY 2WSW      N/A     59  34  38 S8        30.14F
UMBARGER 3NNE    N/A     58  38  47 S8        30.19S
$$

TXZ033>036-039>041-045>048-040700
TEXAS TECH WEST TEXAS MESONET/SOUTH PLAINS

CITY           SKY/WX    TMP DP  RH WIND       PRES   REMARKS
AIKEN 3WSW       N/A     55  33  43 SE9       30.18F
ANDREWS 2NE      N/A     63  44  49 SE5       30.15F
ANTON 6SSW       N/A     58  39  50 CALM      30.17F
BROWNFIELD 2S    N/A     59  39  46 SE7       30.17S
DENVR CTY 7WNW   N/A     60  39  45 SE7       30.18S
GAIL 2ESE        N/A     65  35  32 SE5       30.15S
LAMESA 2SE       N/A     62  38  41 SE6       30.16S
LUBBOCK 3WNW     N/A     62  40  44 SE5       30.17S
MORTON 1ENE      N/A     60  40  48 SE7       30.19S
ODONNELL 1N      N/A     63  37  37 SE9       30.17S
PLAINS 3N        N/A     60  40  47 SE7       30.18S
RALLS 1SE        N/A     57  33  40 E8        30.17S
REESE CENTER     N/A     61  38  42 SE5       30.17F
SEAGRAVES 1SW    N/A     62  39  42 SE5       30.17S
SEMINOLE 2NNE    N/A     61  39  44 SE5       30.17S
SLATON 2NE       N/A     59  37  43 SE5       30.17F
SNYDER 3E        N/A     64  33  30 SE8       30.14S
SUNDOWN 8SW      N/A     57  40  53 SE7       30.18S
TAHOKA 3NNE      N/A     63  37  37 SE6       30.16F
WOLFFORTH 6SSW   N/A     57  38  48 E6        30.18S
$$

TXZ031-032-036>038-042>044-040700-
TEXAS TECH WEST TEXAS MESONET/ROLLING PLAINS

CITY           SKY/WX    TMP DP  RH WIND       PRES   REMARKS
ASPERMONT 3NE    N/A     64  33  31 SE7       30.13S
FLUVANNA 3WNW    N/A     64  34  32 SE8       30.15S
GRAHAM 5SSW      N/A     67  36  31 SE7       30.16S
GUTHRIE 10WSW    N/A     62  34  35 CALM      30.13F
HASKELL 1NW      N/A     67  41  39 SE9       30.12S
JAYTON 1SSE      N/A     64  33  32 E7        30.14S
KNOX CITY 3NW    N/A     63  38  40 SE10      30.12F
LK A HENRY 1NW   N/A     63  38  39 SE3       30.14S
NORTHFIELD 1S    N/A     66  34  30 S12       30.13S
ODELL 4ENE       N/A     65  42  42 SE12      30.13F
PADUCAH 10SW     N/A     61  35  38 S8        30.16S
POST 1NE         N/A     65  39  38 CALM      30.15S
RRING SPRGS 3N   N/A     62  34  35 S7        30.16S
SEYMOUR 3NW      N/A     62  41  45 SE6       30.13S
SPUR 1W          N/A     59  34  38 NE3       30.13F
WEINERT 2NNE     N/A     64  38  37 SE8       30.13S
WHITE RVR 6NE    N/A     63  34  34 CALM      30.15F
$$

TXZ052-054-060>062-072-078-127-140-154-169-040700-
TEXAS TECH WEST TEXAS MESONET/PERMIAN BASIN/
CONCHO VALLEY/BIG COUNTRY/EDWARDS PLATEAU

CITY           SKY/WX    TMP DP  RH WIND       PRES   REMARKS
COYANOSA 2N      N/A     67  54  61 SE12      30.12S
JUNCTION 1SSW    N/A     54  45  73 CALM      30.15S
MERTZON 3NNE     N/A     56  42  58 SW6       30.15F
SAN ANGELO 7NW   N/A     59  37  43 CALM      30.13F
STRLNG CT 4WSW   N/A     64  35  34 E3        30.16S
ST LAWRNCE 5SW   N/A     60  45  59 SE5       30.15S
SWEETWATR 11SW   N/A     65  34  31 SE10      30.16S
WALL 1E          N/A     59  37  43 S7        30.14S
$$

TXZ055-058-074-075-080-082-040700-
TEXAS TECH WEST TEXAS MESONET/FAR WEST/SOUTHWEST MOUNTAINS/TRANS PECOS

CITY           SKY/WX    TMP DP  RH WIND       PRES   REMARKS
PRSMN GAP BBNP   N/A     67  53  61 N18       30.13S
GUADLPE MTN NP   N/A     59  44  59 CALM      30.25F
$$



USA.gov is the U.S. government's official web portal to all federal, state and local government web resources and services.